Tracking 35274 objects as of 11-Sep-2026
HD Live streaming from Space Station
objects crossing your sky now

TIANQI 18

Track TIANQI 18 now!
10-day predictions


NORAD ID: 64060
Int'l Code: 2025-105C
Launch date: May 19, 2025
Source: People's Republic of China (PRC)
Launch site: Yellow Sea Launch Area, China (YSLA)
Your satellite tracking list
Your tracking list is empty




NASA's NSSDC Master Catalog

Two Line Element Set (TLE):
1 64060U 25105C   26254.22391031  .00000031  00000-0  10956-3 0  9997
2 64060  44.9864 359.4364 0009282  81.8150 278.3735 13.99159506 67243
Source of the keplerian elements: AFSPC